Location: ActonStarParty
(42.4766°N, 71.4538°W)
Time: 05:45:15
(UTC-04:00)

Daily predictions for brighter satellites

Satellite Brightness Start Highest point End
(mag) Time Altitude Azimuth Time Altitude Azimuth Time Altitude Azimuth
SL-16 R/B 3.8 00:11:47 30° NW 00:11:47 30° NW 00:16:21 10° N
Cosmos 1844 Rocket 4.2 00:24:31 10° NNW 00:27:35 33° N 00:27:35 33° N
Cosmos 2360 Rocket 3.6 00:32:37 34° N 00:32:37 34° N 00:36:02 10° NNE
CZ-2C R/B 4.4 00:31:31 10° NNE 00:34:11 28° NNE 00:34:11 28° NNE
ATLAS 3B R/B 4.0 00:53:16 34° ENE 00:53:16 34° ENE 00:57:49 10° NE
Cosmos 2219 Rocket 3.9 00:55:54 27° NE 00:55:54 27° NE 00:58:24 10° NNE
Cosmos 2333 Rocket 3.9 01:03:46 28° NE 01:03:46 28° NE 01:06:32 10° NNE
SL-16 R/B 4.5 01:04:32 16° ENE 01:04:32 16° ENE 01:06:04 10° NE
Cosmos 2237 Rocket 3.9 01:10:34 28° NE 01:10:34 28° NE 01:13:18 10° NNE
COSMOS 2428 4.1 01:19:05 33° NNW 01:19:05 33° NNW 01:22:37 10° NNE
Lacrosse 4 Rocket 4.3 01:35:57 15° NNW 01:35:57 15° NNW 01:37:14 10° N
Cosmos 2278 Rocket 3.9 01:36:05 10° NNW 01:38:34 27° NNW 01:38:34 27° NNW
COSMOS 2455 3.6 02:11:16 45° NNW 02:11:16 45° NNW 02:16:02 10° NNE
Cosmos 1607 4.4 02:15:04 53° ENE 02:15:04 53° ENE 02:19:55 10° NE
CZ-2D R/B 4.2 02:21:16 10° NE 02:24:43 17° E 02:25:32 17° ESE
Cosmos 2369 Rocket 4.4 02:22:20 10° N 02:26:39 22° NE 02:30:55 10° E
CZ-4C R/B 2.9 02:28:47 50° ENE 02:28:47 50° ENE 02:33:23 10° NE
Cosmos 2219 Rocket 3.9 02:37:37 22° NW 02:37:37 22° NW 02:41:33 10° N
NPP 4.1 02:33:10 10° NNE 02:37:35 60° NNE 02:37:35 60° NNE
Meteor 2-2 Rocket 4.5 02:40:23 73° NE 02:40:23 73° NE 02:45:49 10° NNE
ATLAS 3B R/B 3.4 02:40:30 46° WNW 02:41:34 49° NW 02:48:43 10° NNE
Cosmos 2333 Rocket 3.8 02:45:46 25° NW 02:45:46 25° NW 02:50:14 10° N
SL-16 R/B 2.7 02:46:25 51° NNW 02:46:25 51° NNW 02:51:12 10° NNE
Cosmos 1048 Rocket 4.3 02:51:12 65° NNE 02:51:12 65° NNE 02:55:47 10° NNE
Cosmos 2237 Rocket 3.7 02:52:23 25° NW 02:52:23 25° NW 02:56:49 10° N
SL-16 R/B 3.3 02:49:18 27° SE 02:52:26 49° ENE 02:58:22 10° N
Spot 4 Rocket 4.4 02:50:27 10° NNE 02:55:16 57° E 02:55:16 57° E
IRS-1D 4.5 02:51:19 10° NNE 02:56:13 40° E 02:56:40 39° ESE
ADEOS 3.8 02:51:16 10° NNE 02:56:08 64° ENE 02:56:08 64° ENE
S3M 3.9 02:57:10 75° SE 02:57:34 79° E 03:03:53 10° N
Cosmos 1867 3.9 02:58:54 60° NNW 02:58:54 60° NNW 03:03:47 10° NNE
Resurs 1-4 Rocket 3.0 03:01:32 10° NNE 03:06:32 42° E 03:07:28 38° SE
Cosmos 1269 Rocket 4.4 03:07:21 53° NW 03:07:21 53° NW 03:11:54 10° NNE
IRAS Rocket 4.1 03:01:24 10° NNE 03:07:04 82° ESE 03:07:13 81° SE
ARIANE 5 R/B 2.9 03:05:00 10° NNE 03:10:11 58° E 03:10:37 56° ESE
Cosmos 1869 Rocket 4.0 03:12:49 10° N 03:16:34 60° NNE 03:16:34 60° NNE
UNK 4.1 03:17:02 59° E 03:17:24 61° ENE 03:21:58 10° N
Cosmos 1553 Rocket 3.8 03:18:01 69° WSW 03:18:30 72° W 03:24:38 10° N
ERS-2 3.5 03:15:52 10° NNE 03:18:17 38° NNE 03:18:17 38° NNE
Cosmos 1745 Rocket 3.9 03:15:15 10° N 03:21:38 77° W 03:22:44 62° SSW
Cosmos 1386 Rocket 4.5 03:15:55 10° N 03:22:17 81° E 03:24:31 42° SSE
EO 1 Del DPAF 4.5 03:23:04 38° E 03:23:37 40° ENE 03:27:18 10° N
UNKNOWN OBJECT B 4.2 03:20:21 10° NNE 03:23:37 32° E 03:23:37 32° E
Cosmos 1603 3.6 03:27:28 64° W 03:27:55 67° WNW 03:33:39 10° NNE
USA 234 3.2 03:21:35 10° NE 03:28:10 86° NW 03:29:55 53° SW
ATLAS 5 CENTAUR R/B 3.5 03:27:55 21° SE 03:29:18 24° ESE 03:33:20 10° ENE
USA 238 DEB 4.3 03:28:04 38° W 03:29:58 46° NW 03:36:45 10° NNE
USA 238 4.3 03:28:10 38° W 03:30:04 47° NW 03:36:51 10° NNE
Cosmos 1356 Rocket 3.8 03:30:06 10° N 03:33:17 54° N 03:33:17 54° N
Meteor 2-3 Rocket 3.7 03:29:28 10° N 03:35:16 85° E 03:37:45 36° SSE
SeaSat 1 3.3 03:30:44 10° SE 03:35:28 49° ENE 03:40:15 10° NNW
ERBS 3.9 03:36:28 32° N 03:36:28 32° N 03:38:55 10° NNE
In-Cosmos 22 Rocket 3.9 03:30:34 10° NNW 03:35:53 81° W 03:36:47 62° S
ATLAS CENTAUR R/B 1.9 03:35:43 10° NNW 03:40:05 59° NE 03:44:03 10° SE
Cosmos 158 Rocket 4.0 03:41:36 57° W 03:41:52 58° WNW 03:46:50 10° NNE
Cosmos 2251 Rocket 3.4 03:41:12 62° SSW 03:42:08 90° NW 03:47:25 10° NNE
NOSS 3-2 (A) 3.5 03:44:53 48° WSW 03:46:37 71° NW 03:53:19 10° NNE
Cosmos 1892 3.1 03:43:42 10° N 03:47:32 60° E 03:48:19 47° SE
Cosmos 1110 Rocket 3.8 03:43:02 10° NNW 03:48:14 72° WSW 03:49:49 45° S
NOSS 3-3 (A) 4.4 03:47:55 10° NW 03:55:20 68° WSW 04:03:11 10° SSE
NOSS 3-3 (C) 4.4 03:48:01 10° NW 03:55:26 69° WSW 04:03:19 10° SSE
Cosmos 1733 Rocket 3.7 03:53:18 10° N 03:57:36 53° E 04:01:53 10° SSE
Meteor 2-10 4.1 03:55:25 34° S 03:58:01 84° E 04:03:29 10° NNE
Cosmos 1707 Rocket 3.9 03:59:34 46° W 03:59:36 46° WNW 04:03:56 10° N
Cosmos 1943 3.1 03:57:59 43° SSW 03:59:57 83° WNW 04:05:39 10° NNE
NOSS 3-2 (C) 3.5 03:59:51 40° WSW 04:02:11 69° NW 04:08:54 10° NNE
CZ-2D R/B 2.2 04:00:01 10° N 04:05:13 60° WNW 04:06:51 41° SW
Cosmos 1300 4.3 04:08:26 22° NW 04:08:26 22° NW 04:10:40 10° NNW
PSLV R/B 4.3 04:05:21 10° NNE 04:09:02 52° E 04:10:53 26° SSE
Cosmos 1726 3.6 04:09:57 24° NW 04:09:57 24° NW 04:12:19 10° NNW
CENTAUR R/B 3.6 04:04:39 15° S 04:09:07 39° ESE 04:15:17 10° NE
Cosmos 2369 Rocket 2.1 04:05:35 10° NNW 04:11:07 63° WSW 04:16:39 10° S
Cosmos 839 Rocket 4.4 04:03:31 10° NW 04:11:28 57° WSW 04:17:54 10° S
CZ-4B R/B 3.9 04:07:58 10° NNE 04:13:08 50° E 04:18:15 10° S
Cosmos 2315 Rocket 3.9 04:10:59 26° SSW 04:14:40 73° W 04:20:58 10° N
CZ-4C R/B 3.7 04:13:58 19° WNW 04:16:35 27° NW 04:21:46 10° NNE
Okean O Rocket 1.9 04:12:47 10° NNE 04:17:15 68° ESE 04:20:19 20° S
Cosmos 1455 2.1 04:19:25 40° SSW 04:20:43 75° W 04:24:38 10° N
ARGOS Delta rocket 3.5 04:19:50 10° N 04:24:17 81° WNW 04:26:51 25° SSW
SL-16 R/B 4.4 04:29:29 10° NW 04:31:00 11° NW 04:32:31 10° NNW
MTI 4.3 04:31:16 38° W 04:31:16 38° W 04:34:23 10° NNW
Cosmos 494 Rocket 4.4 04:29:15 28° WSW 04:31:33 45° WNW 04:36:36 10° N
Sich 1 Rocket 3.8 04:27:46 10° N 04:32:10 71° E 04:36:32 10° SSE
Abrixas rocket 4.0 04:30:26 15° NW 04:32:36 28° N 04:35:33 10° ENE
CZ-2C R/B 3.5 04:31:43 10° S 04:36:08 70° WSW 04:40:35 10° NNW
SL-16 R/B 3.4 04:34:24 24° WSW 04:36:17 28° W 04:41:29 10° NW
PAYLOAD B 4.2 04:31:11 10° NNE 04:36:46 85° ESE 04:42:17 10° SSW
Cosmos 2292 Rocket 4.1 04:36:22 10° NNW 04:38:10 23° WNW 04:38:10 23° WNW
Cosmos 1302 Rocket 4.2 04:33:59 10° NNW 04:39:03 49° WSW 04:44:02 10° S
CZ-2D R/B 4.1 04:35:48 10° N 04:39:58 42° WNW 04:42:05 25° SW
Cosmos 2263 4.4 04:34:48 10° NW 04:40:24 51° WSW 04:45:57 10° S
Cosmos 1943 Rocket 2.1 04:36:11 10° NNW 04:41:54 82° WSW 04:47:31 10° SSE
Cosmos 389 Rocket 2.3 04:39:51 21° SSW 04:42:01 80° W 04:45:32 10° N
Cosmos 1703 Rocket 4.4 04:38:03 10° S 04:42:23 52° E 04:46:45 10° NNE
SL-08 ROCKET BODY 4.5 04:36:35 10° N 04:42:37 83° E 04:48:43 10° S
Resurs 1-4 Rocket 3.2 04:41:50 10° N 04:46:08 26° WNW 04:48:33 19° WSW
MOZ.5/SAFIR/RUBIN 5/SL-8 3.9 04:42:12 10° S 04:46:42 52° W 04:51:15 10° NNW
ASTRO F (AKARI) 4.5 04:43:46 10° SSE 04:47:26 90° NW 04:50:56 10° NNW
ARIANE 5 R/B 4.1 04:45:08 10° NNW 04:48:50 20° WNW 04:50:57 16° W
Cosmos 1862 3.3 04:45:10 10° N 04:49:09 83° E 04:53:07 10° S
CZ-4B R/B 2.5 04:46:41 10° N 04:50:18 74° WNW 04:53:37 13° SSW
PSLV R/B 3.3 04:50:52 24° WSW 04:52:46 70° S 04:56:09 10° E
UNKNOWN OBJECT B 4.4 04:55:32 10° NNW 04:58:02 17° WNW 04:59:08 15° W
Cosmos 1825 2.1 04:56:09 10° N 04:59:57 78° W 05:03:44 10° S
Cosmos 1933 3.3 04:58:35 10° SSW 05:02:41 71° W 05:06:48 10° N
Cosmos 1869 4.2 05:00:56 17° SW 05:03:22 31° WNW 05:06:57 10° NNW
ADEOS II 2.5 04:59:20 10° NNE 05:04:34 65° ESE 05:09:46 10° S
Cosmos 1408 2.5 05:01:32 10° NNW 05:05:15 67° W 05:08:58 10° S
PSLV R/B 3.7 05:02:03 10° NNE 05:06:27 82° ESE 05:10:50 10° S
Cosmos 1184 Rocket 4.0 05:04:36 10° NW 05:07:28 25° W 05:10:15 10° SSW
Geosat 4.0 05:02:33 10° NNE 05:07:37 89° WNW 05:12:38 10° SSW
Cosmos 1862 Rocket 4.4 05:05:10 14° SW 05:08:17 31° WNW 05:12:13 10° NNW
Nadezhda 1 Rocket 4.0 05:02:08 10° S 05:08:23 81° W 05:14:45 10° N
USA 234 4.3 05:04:52 10° NE 05:10:41 35° NNW 05:16:29 10° W
USA 116 4.3 05:06:14 10° SSE 05:10:53 87° ENE 05:16:05 10° NNW
Okean 2 Rocket 3.4 05:08:34 10° N 05:13:05 76° E 05:17:35 10° SSE
SeaSat 1 3.5 05:09:21 10° SSW 05:13:12 23° WSW 05:17:04 10° NW
ATLAS 5 CENTAUR R/B 2.3 05:09:30 14° WSW 05:13:36 48° NW 05:18:43 10° NNE
Thor Agena Rocket 3.8 05:11:31 10° S 05:16:27 48° W 05:21:30 10° NNW
NAVSTAR 52 R/B(PAM-D 4.4 05:15:55 16° SSW 05:16:38 20° S 05:18:00 10° ESE
Cosmos 1656 Rocket 3.6 05:12:00 10° NNW 05:17:27 88° WSW 05:22:52 10° SSE
Atlas Centaur 2 4.2 05:15:40 10° S 05:17:32 12° SSE 05:19:32 10° SE
ATLAS CENTAUR R/B 3.0 05:16:29 10° WNW 05:18:31 13° WSW 05:20:30 10° SW
BREEZE-M DEB (TANK) 2.1 05:20:26 10° WNW 05:22:35 46° SSW 05:25:33 10° SE
Cosmos 1174 4.4 05:18:15 10° SSW 05:23:54 87° WNW 05:28:22 10° NNE
Cosmos 1190 Rocket 4.2 05:19:33 10° SSW 05:24:44 76° ESE 05:29:56 10° NNE
CZ-3 R/B 4.4 04:53:51 10° W 05:27:01 33° SW 05:36:53 10° SSE
Okean 1-7 3.0 05:25:03 10° SSW 05:29:19 76° W 05:33:41 10° N
USA 32 4.3 05:24:25 10° SSW 05:29:31 51° W 05:34:38 10° N
Cosmos 2074 Rocket 4.5 05:24:24 10° NNW 05:30:04 38° W 05:35:43 10° SSW
Cosmos 2154 Rocket 4.0 05:23:56 10° N 05:30:16 78° W 05:36:35 10° S
Cosmos 1992 Rocket 4.2 05:32:00 10° NNW 05:37:00 48° WSW 05:42:00 10° S
COSMOS 2406 3.4 05:31:20 10° SW 05:37:00 58° WNW 05:42:43 10° NNE
